星链-4133 (STARLINK-4133 )

导读 | 星芒AI

STARLINK-4133 是 SpaceX Starlink 卫星互联网项目中的一颗低轨卫星,属于第二批星链组网卫星(Gen1 V1)。它于2022年发射,运行在约550公里高度的近地轨道,旨在为全球用户提供高速互联网服务。该卫星采用可展开的太阳能板和先进通信技术,支持Ka/Ku波段数据传输,并具备自动避障能力。作为星链系统的一部分,STARLINK-4133 有助于提升网络覆盖和连接稳定性,特别是在偏远和网络基础设施薄弱的地区。

基本信息
目录编号:
53253
目录名称:
STARLINK-4133
国际标识:
2022-086M
轨道中心:
EARTH
卫星名称:
星链-4133
卫星全名:
星链-4133 (STARLINK-4133 )
卫星状态:
在轨 (已飞行1246 天)
发射日期:
2022-07-24 UTC
国别 :
美国 (US)
星等 :
--
轨道信息
数据来源 国际轨道数据
星历时间: 2025-12-21T03:21:36+0800
9小时前
查看轨道信息
半长轴: 6917.892km
偏心率: 0.0001437
轨道倾角: 53.216°
近地点辐角 89.753°
升交点赤经 188.241°
平近点角 270.363°
近地点: 538.76km
远地点: 540.75km
周期: 95.438分钟
每日圈数: 15.088365
详细信息
固有亮度:
5
最大亮度:
2.5
卫星平台:
Starlink v1.5
覆盖范围:
全球
运营商:
太空探索技术公司
运营商所在国:
美国
制造商(研发单位):
太空探索技术公司
制造商所在国:
美国
使用方式:
暂无
卫星简介
星链(Starlink)计划是由太空探索技术公司(SpaceX)提出的一个巨型低轨卫星互联网星座项目,计划在2019年至2024年间在太空搭建由约1.2万颗卫星组成的“星链”网络,其中1584颗将部署在地球上空550千米处的近地轨道,并从2020年开始工作。该卫星仍在工作。
2D轨道图
3D轨道图
轨道高度分析图
轨道倾角分析图
轨道综合分析图
查看轨道综合分析图